loading
|

OBJECT A, 57424

Orbit data source: Space-Track

OBJECT A, 57424 is a Chinese satellite in LEO that was launched on Sun, 23 Jul 2023 UTC via a CHANG ZHENG 2D launch vehicle from the Taiyaun Space Center, China (TSC). Unknown objects in Earth's orbit typically refer to objects detected orbiting the Earth but have not yet been identified or cataloged. These objects could be anything from previously untracked satellites, spent rocket stages, debris from satellite collisions, or even natural meteoroids temporarily captured by Earth's gravity.

Loading next visibility...
Loading greatness...
OBJECT A details
Identifier
57424, 2023-104A
Orbit
LEO
Last TLE update9 hours ago
Origin
Flag of CNSXAK/CUMT (CN / PRC)
ManufacturerDFH
MissionOperational Commercial Radar Imaging
Bus & MotorAS, Unknown motor
Mass~100 kg wet, ~100 kg dry
Launch date (UTC)
2023-07-23 (1 year ago)
Launch vehicle
CHANG ZHENG 2D
Launch site
Taiyaun Space Center, China (TSC)
Object typeUnknown
Shape & HBRBox + 2 Pan, 1.5 m
Radar Cross Section0.363 m², Large (>1 m²)

Expand to show TLE details & history

TLE from 9 hours ago
0 OBJECT A
1 57424U 23104A   24279.54559459  .00047700  00000-0  14751-2 0  9990
2 57424  97.3461 346.0691 0012038 162.7790 197.3863 15.33278171 67232
Epoch: 2024-10-05T13:05Z
Definitive object data (Epoch: 2024-10-05T13:05:39.372Z)
Latitude-0.00006°
Longitude134.95469°
Altitude477.015 km
Speed7.623 km/s
True Right ascension23h 04m 16s
True Declination0° 00' 00"
Sunlit
Object was in full shadow at TLE epoch
Predictive object data (real-time)
Latitude-19.80398°
Longitude-47.33127°
Altitude467.163 km
Speed7.635 km/s
Apparent Right ascension08h 02m 54s
Apparent Declination-42° 53' 28"
Sunlit
Object is in daylight
Predictive observer data (real-time)
Local Sidereal Time15:47:22
Azimuth244.408° WSW
Elevation-43.163°
Doppler factor1
Orbital elements
Apogee471.221 km
Perigee454.75 km
Semi-major axis6,841.122 km
Eccentricity0.0012038
Inclination97.3461°
RAAN346.0691°
Arg. of periapsis162.779°
True anomaly197.34514°
Mean anomaly197.3863°
Eccentric anomaly197.36571°
Mean motion3.83577 °/min
BSTAR0.0014751
Period93.85 mins
No data available
No data available

OBJECT A Visibility forecast

Observer location: 39.9160978°, -105.1181434

OBJECT A is not visible in the next 10 days
Span
Click to sort rows by Start time (UTC) header in descending order
Start Az.
Max El. time (UTC)
Max El. Az.
Max El.
End time (UTC)
End Az.